Location: Unspecified
(0.0000°N, 0.0000°E)
Time: 07:29:50
(UTC+00:00)

Courier 1B Rocket - Pass Details

Date: 14 December 2018
Orbit: 920 x 1202 km, 28.2° (Epoch: 16 June)

Event Time Altitude Azimuth Distance (km) Brightness Sun altitude
Rises 20:35:42 0° 256° (WSW) 4,055 9.1 -36.4°
Reaches altitude 10° 20:40:22 10° 231° (SW) 3,049 8.3 -37.4°
Maximum altitude 20:43:54 14° 203° (SSW) 2,734 7.8 -38.2°
Drops below altitude 10° 20:47:21 10° 174° (S) 2,960 7.7 -38.9°
Enters shadow 20:50:18 - 156° (SSE) 3,503 8.0 -39.6°
Sets 20:51:46 0° 149° (SSE) 3,850 - -39.9°
